Weather History for KPRB - February, 2014

Change the Weather History Date:

Saturday, February 8, 2014

  Actual Average Record
Temperature  
Mean Temperature 56 °F 49 °F  
Max Temperature 60 °F 61 °F 79 °F (1991)
Min Temperature 51 °F 37 °F 23 °F (2003)
Degree Days  
Heating Degree Days 9 16  
Month to date heating degree days 138 129  
Since 1 July heating degree days 1545 1805  
Cooling Degree Days 0 0  
Month to date cooling degree days 0 0  
Year to date cooling degree days 0 0  
Growing Degree Days 6 (Base 50)    
Moisture  
Dew Point 53 °F    
Average Humidity 89    
Maximum Humidity 100    
Minimum Humidity 78    
Precipitation  
Precipitation 0.03 in 0.09 in 1.33 in (1978)
Month to date precipitation 0.95 0.73  
Year to date precipitation 0.95 3.48  
Since 1 July precipitation 1.41  
Sea Level Pressure  
Sea Level Pressure 30.21 in    
Wind  
Wind Speed 5 mph (South)    
Max Wind Speed 15 mph    
Max Gust Speed -    
Visibility 8 miles    
Events Rain    
T = Trace of Precipitation, MM = Missing Value Source: NWS Daily Summary

Daily Weather History Graph

Daily Weather History Graph

Search for Another Location

Airport or City:

Trip Planner

Search our weather history database for the weather conditions in past years. The results will help you decide how hot, cold, wet, or windy it might be!

Date:

Astronomy

Feb. 08, 2014 Rise Set
Actual Time 6:56 AM PST 5:37 PM PST
Civil Twilight 6:29 AM PST 6:03 PM PST
Nautical Twilight 5:59 AM PST 6:34 PM PST
Astronomical Twilight 5:29 AM PST 7:03 PM PST
Moon 12:38 PM PST (2/8) 2:10 AM PST (2/8)
Length of Visible Light 11h 33m
Length of Day
10h 41m
Waxing Gibbous, 69% of the Moon is Illuminated
Feb 8
Waxing Gibbous
Feb 14
Full
Feb 22
Last Quarter
Mar 1
New
Mar 8
First Quarter

Hourly Weather History & Observations

Time (PST) Temp. Dew Point Humidity Pressure Visibility Wind Dir Wind Speed Gust Speed Precip Events Conditions
12:53 AM 52.0 °F 48.0 °F 86% 30.19 in 10.0 mi Calm Calm - N/A   Overcast
1:53 AM 52.0 °F 48.9 °F 89% 30.19 in 10.0 mi Calm Calm - N/A   Overcast
2:53 AM 51.1 °F 48.9 °F 92% 30.18 in 10.0 mi Calm Calm - N/A   Overcast
3:53 AM 52.0 °F 48.9 °F 89% 30.18 in 10.0 mi Calm Calm - N/A   Overcast
4:37 AM 52.0 °F 48.0 °F 86% 30.18 in 10.0 mi Calm Calm - N/A   Overcast
4:53 AM 52.0 °F 48.9 °F 89% 30.19 in 10.0 mi Calm Calm - N/A   Overcast
5:21 AM 52.0 °F 48.9 °F 89% 30.19 in 10.0 mi Calm Calm - N/A   Overcast
5:53 AM 51.1 °F 48.9 °F 92% 30.19 in 10.0 mi Calm Calm - N/A   Overcast
6:32 AM 52.0 °F 50.0 °F 93% 30.20 in 10.0 mi SSE 3.5 mph - N/A   Overcast
6:53 AM 51.1 °F 51.1 °F 100% 30.21 in 7.0 mi South 3.5 mph - N/A   Overcast
7:19 AM 51.1 °F 51.1 °F 100% 30.21 in 5.0 mi Calm Calm - N/A   Overcast
7:50 AM 51.8 °F 51.8 °F 100% 30.21 in 2.5 mi SE 3.5 mph - N/A   Overcast
7:53 AM 52.0 °F 52.0 °F 100% 30.21 in 2.5 mi SE 3.5 mph - N/A   Overcast
7:57 AM 52.0 °F 52.0 °F 100% 30.21 in 3.0 mi Calm Calm - N/A   Overcast
8:28 AM 53.1 °F 53.1 °F 100% 30.21 in 10.0 mi SSE 6.9 mph - N/A   Overcast
8:47 AM 53.6 °F 53.6 °F 100% 30.22 in 6.0 mi SE 5.8 mph - N/A   Overcast
8:53 AM 53.1 °F 53.1 °F 100% 30.22 in 6.0 mi SE 6.9 mph - N/A   Overcast
9:53 AM 55.0 °F 53.1 °F 93% 30.22 in 6.0 mi SE 5.8 mph - N/A   Overcast
10:19 AM 55.9 °F 55.0 °F 97% 30.23 in 4.0 mi SSE 6.9 mph - N/A   Overcast
10:33 AM 55.9 °F 55.0 °F 97% 30.23 in 2.5 mi SSE 4.6 mph - N/A   Overcast
10:48 AM 55.4 °F 55.4 °F 100% 30.25 in 6.0 mi Calm Calm - N/A   Overcast
10:53 AM 55.9 °F 55.0 °F 97% 30.23 in 9.0 mi Calm Calm - N/A   Overcast
11:00 AM 57.0 °F 55.0 °F 93% 30.24 in 10.0 mi Calm Calm - N/A   Overcast
11:13 AM 59.0 °F 55.9 °F 90% 30.23 in 10.0 mi SSW 9.2 mph - N/A   Overcast
11:21 AM 59.0 °F 55.0 °F 87% 30.23 in 10.0 mi South 10.4 mph - N/A   Overcast
11:29 AM 57.9 °F 55.0 °F 90% 30.22 in 10.0 mi South 9.2 mph - N/A   Overcast
11:53 AM 57.9 °F 55.0 °F 90% 30.21 in 9.0 mi SSW 8.1 mph - N/A   Overcast
12:29 PM 60.1 °F 55.0 °F 83% 30.19 in 10.0 mi SSW 8.1 mph - N/A   Overcast
12:53 PM 60.1 °F 54.0 °F 80% 30.18 in 10.0 mi SW 11.5 mph - N/A   Overcast
1:51 PM 57.2 °F 57.2 °F 100% 30.19 in 5.0 mi South 6.9 mph - 0.00 in Rain Light Rain
1:53 PM 57.9 °F 57.0 °F 97% 30.19 in 5.0 mi South 8.1 mph - 0.00 in Rain Light Rain
2:53 PM 57.0 °F 57.0 °F 100% 30.21 in 4.0 mi SW 9.2 mph - 0.00 in Rain Light Rain
3:11 PM 57.0 °F 55.9 °F 96% 30.22 in 6.0 mi SW 10.4 mph - 0.00 in   Overcast
3:53 PM 57.0 °F 55.9 °F 96% 30.22 in 4.0 mi South 5.8 mph - 0.00 in   Overcast
4:05 PM 57.0 °F 57.0 °F 100% 30.22 in 2.0 mi SSW 8.1 mph - N/A   Overcast
4:15 PM 57.0 °F 55.9 °F 96% 30.22 in 2.5 mi South 6.9 mph - 0.00 in Rain Light Rain
4:46 PM 57.0 °F 55.9 °F 96% 30.22 in 3.0 mi South 10.4 mph - 0.02 in Rain Light Rain
4:53 PM 57.0 °F 55.9 °F 96% 30.22 in 1.8 mi South 9.2 mph - 0.03 in Rain Light Rain
5:00 PM 57.0 °F 55.9 °F 96% 30.23 in 3.0 mi South 9.2 mph - 0.00 in Rain Light Rain
5:53 PM 57.0 °F 55.9 °F 96% 30.22 in 10.0 mi South 10.4 mph - 0.00 in   Mostly Cloudy
6:53 PM 55.9 °F 54.0 °F 93% 30.21 in 10.0 mi SSW 6.9 mph - N/A   Clear
7:50 PM 55.4 °F 53.6 °F 94% 30.23 in 10.0 mi Calm Calm - N/A   Mostly Cloudy
7:53 PM 55.0 °F 54.0 °F 96% 30.23 in 10.0 mi Calm Calm - N/A   Mostly Cloudy
8:11 PM 54.0 °F 54.0 °F 100% 30.23 in 10.0 mi South 4.6 mph - N/A   Scattered Clouds
8:53 PM 53.1 °F 53.1 °F 100% 30.22 in 10.0 mi SSE 4.6 mph - N/A   Clear
9:53 PM 54.0 °F 54.0 °F 100% 30.23 in 10.0 mi South 3.5 mph - N/A   Mostly Cloudy
10:53 PM 55.0 °F 54.0 °F 96% 30.24 in 10.0 mi SSW 6.9 mph - N/A   Overcast
11:10 PM 55.0 °F 54.0 °F 96% 30.26 in 10.0 mi SSW 8.1 mph - N/A   Scattered Clouds
11:24 PM 55.0 °F 54.0 °F 96% 30.26 in 10.0 mi SSW 6.9 mph - N/A   Mostly Cloudy
11:53 PM 54.0 °F 54.0 °F 100% 30.22 in 10.0 mi SE 4.6 mph - N/A   Overcast